sat.trackr.live / text

‹ back to catalog

STARLINK-2591

NORAD 48361 · 2021-038J

PAYLOAD ACTIVE UNKNOWN

§ Identity

Operator
Country
US
Launch date
2021-05-04
Launch site
AFETR
Launch vehicle
Mass (kg)
RCS (m²)

Purposes: comms

External: N2YO · Heavens-Above · Gunter

§ Orbital elements

Epoch: 2026-09-19T07:32:40.004160Z

Period
94.01 min
Inclination
53.1586°
Eccentricity
0.0001133
Mean motion
15.31696333 rev/d
Perigee alt
470.0 km
Apogee alt
471.5 km
Semi-major
6,848.9 km
B*
1.5003e-5
RAAN
177.0518°
Arg perigee
105.8574°
Mean anomaly
254.2553°
Rev number
29,674

§ Raw data

STARLINK-25911 48361U 21038J   26262.31435190  .00000100  00000+0  15003-4 0  99932 48361  53.1586 177.0518 0001133 105.8574 254.2553 15.31696333296743

JSON: /api/v1/satellites/48361 · /tle

For live sub-satellite position, see the globe view (requires WebGL).

§ Visibility from observer

Set your observer location to see the next 7 days of passes ≥ 10°. The values pass through the URL so the page stays shareable.

No JS? Fill the form by hand. The geolocation button needs JavaScript.